# Land Stadt Wetter Temperatur Luftdruck Luftfeuchtigkeit Sichtweite Windgeschwindigkeit Windrichtung Ortszeit
1 us Death Valley Clear 33 1007 15 10000 8 178 02.08.2018 14:22
2 fr Nizza Clear 17 1018 79 10000 9 340 02.08.2018 14:22
3 it Palermo Clear 21 1003 40 10000 3 221 02.08.2018 14:22
4 kr Seoul Clear 22 1017 60 10000 15 110 02.08.2018 14:21
5 at Wien Clear 12 1019 79 10000 21 309 02.08.2018 14:22
6 iq Bagdad Clear 20 1006 42 10000 6 200 02.08.2018 14:22
7 it Mailand Clear 13 1018 90 10000 3 248 02.08.2018 14:21
8 de Emden Clear 11 1011 90 10000 18 236 02.08.2018 14:21
9 de Hiddensee Clear 13 1006 85 10000 40 264 02.08.2018 14:21
10 de Flensburg Clear 11 1006 93 10000 22 260 02.08.2018 14:21
11 mn Uliastai Clear -3 1034 19 10000 9 315 02.08.2018 14:23
12 fi Rovaniemi Clear 3 1007 93 10000 15 130 02.08.2018 14:21
13 au Darwin Clear 32 1008 46 10000 7 360 02.08.2018 14:22
14 ar Ushuaia Clear 4 1022 60 10000 15 290 02.08.2018 14:22
15 de Dresden Clear 11 1009 87 10000 15 250 02.08.2018 14:22
16 de Bremen Clear 11 1011 96 10000 15 230 02.08.2018 14:22
17 es Palma de Mallorca Clear 14 1027 94 10000 6 30 02.08.2018 14:22
18 es Sevilla Clear 18 1021 59 10000 22 80 02.08.2018 14:22
19 ar Buenos Aires Clear 16 1022 78 10000 11 120 02.08.2018 14:22
20 in Jagatsukh Clear 18 1017 52 10000 4 23 02.08.2018 14:22
21 bo Potisi Clear 6 1021 72 10000 7 6 02.08.2018 14:22
22 us Los Angeles Clear 22 1016 70 10000 13 260 02.08.2018 14:22
23 tr Alanya Clear 23 1012 46 10000 12 309 02.08.2018 14:22
24 de Magdeburg Clear 10 1003 93 10000 13 268 02.08.2018 14:22
25 de Helgoland Clear 15 1009 75 10000 38 281 02.08.2018 14:22
26 es Barcelona Clear 18 1025 68 10000 22 320 02.08.2018 14:22
27 pt Lissabon Clear 17 1020 67 10000 20 30 02.08.2018 14:22
28 za Kapstadt Clear 13 1015 82 10000 7 20 02.08.2018 14:22
29 gr Athen Clear 24 1011 78 10000 10 234 02.08.2018 14:22
30 uy Montevideo Clear 15 1022 76 10000 10 55 02.08.2018 14:22
31 es Madrid Clear 14 1009 54 10000 6 59 02.08.2018 14:23
32 de Braunschweig Clear 11 1012 83 10000 11 230 02.08.2018 14:21
33 tr Ankara Clear 16 1014 63 10000 4 20 02.08.2018 14:23
34 it Rom Clear 15 1021 75 10000 4 110 02.08.2018 14:23
35 ru Surgut Clear 1 1034 59 10000 14 200 02.08.2018 14:23
36 us Chicago Clear 15 1024 73 10000 8 25 02.08.2018 14:23
37 cl Santiago Clear 18 987 56 10000 2 179 02.08.2018 14:23
38 mx Mexiko Stadt Clear 18 1019 47 10000 11 330 02.08.2018 14:21
39 us Tucson Clear 30 1010 38 10000 13 190 02.08.2018 14:21
40 es Tarifa Clear 18 1021 77 10000 46 87 02.08.2018 14:21
41 af Kabul Clear 19 1013 21 10000 4 44 02.08.2018 14:21
42 tr Istanbul Clear 25 1007 53 10000 11 230 02.08.2018 14:23
43 ae Dubai Clear 31 1007 66 10000 7 140 02.08.2018 14:21
44 cn Shanghai Clear 32 1007 66 10000 18 170 02.08.2018 14:21
45 sa Riad Clear 23 1009 19 10000 3 314 02.08.2018 14:21
46 us Nome Clear 7 1004 70 10000 7 180 02.08.2018 14:23
47 qa Doha Clear 29 1006 56 10000 7 260 02.08.2018 14:23
48 jp Tokio Clouds 28 1020 45 10000 17 70 02.08.2018 14:22
49 ru Amderma Clouds 3 1013 96 903 26 201 02.08.2018 14:23
50 et Addis Abeba Clouds 13 1026 82 10000 0 0 02.08.2018 14:23
51 ca Montreal Clouds 10 1026 66 10000 28 30 02.08.2018 14:22
52 eg Kairo Clouds 24 1013 83 6000 11 20 02.08.2018 14:22
53 ru Moskau Clouds 11 1006 90 10000 22 238 02.08.2018 14:22
54 mn Ulaanbaatar Clouds 0 1025 59 10000 7 0 02.08.2018 14:23
55 ru Werchojansk Clouds -3 1018 82 8957 5 190 02.08.2018 14:22
56 gl Nuuk Clouds 2 993 87 10000 9 60 02.08.2018 14:22
57 id Jakarta Clouds 32 1007 62 10000 17 355 02.08.2018 14:22
58 no Hammerfest Clouds 4 1003 81 10000 17 90 02.08.2018 14:22
59 ma Casablanca Clouds 22 1015 64 10000 10 80 02.08.2018 14:23
60 cn Peking Clouds 19 1012 74 10000 1 314 02.08.2018 14:23
61 cn Lhasa Clouds 16 1010 40 10000 11 189 02.08.2018 14:22
62 ru Anadyr Clouds 4 1008 65 10000 14 80 02.08.2018 14:23
63 nz Wellington Clouds 9 1006 93 10000 39 180 02.08.2018 14:23
64 ru Jakutsk Clouds -1 1015 58 10000 14 60 02.08.2018 14:22
65 ke Nairobi Clouds 14 1017 84 10000 7 58 02.08.2018 14:22
66 cd Kisangani Clouds 21 1013 99 10000 3 107 02.08.2018 14:23
67 us Fairbanks Clouds 8 1005 76 10000 0 0 02.08.2018 14:23
68 pe Cusco Clouds 12 1032 50 10000 11 290 02.08.2018 14:23
69 ch Bern Clouds 14 1025 92 10000 10 245 02.08.2018 14:23
70 is Reykjavik Clouds 8 982 93 6000 44 250 02.08.2018 14:22
71 ma Marrakesch Clouds 22 1015 49 10000 7 120 02.08.2018 14:23
72 se Stockholm Clouds 11 1001 94 10000 6 100 02.08.2018 14:23
73 us Miami Clouds 25 1012 89 10000 8 60 02.08.2018 14:23
74 ie Dublin Clouds 12 1014 84 10000 17 230 02.08.2018 14:21
75 do Santo Domingo Clouds 25 1017 96 10000 6 213 02.08.2018 14:21
76 fr Bordeaux Clouds 17 1026 94 10000 13 200 02.08.2018 14:21
77 ph Manila Clouds 30 1009 67 10000 11 110 02.08.2018 14:21
78 de Berlin Clouds 10 1002 91 10000 20 240 02.08.2018 14:21
79 fj Suva Clouds 30 1010 66 10000 24 70 02.08.2018 14:21
80 au Alice Springs Clouds 26 1013 26 10000 19 300 02.08.2018 14:21
81 mx Veracruz Clouds 25 1014 77 10000 14 5 02.08.2018 14:21
82 mg Antananarivo Clouds 10 1023 100 10000 7 150 02.08.2018 14:21
83 bg Warna Clouds 18 1008 92 10000 13 210 02.08.2018 14:21
84 br Manaus Clouds 25 1013 88 10000 11 190 02.08.2018 14:21
85 th Bangkok Clouds 29 1009 64 10000 3 322 02.08.2018 14:21
86 jp Nagasaki Clouds 28 1018 65 10000 11 160 02.08.2018 14:21
87 fi Helsinki Clouds 8 1008 89 10000 7 50 02.08.2018 14:21
88 ua Kiew Clouds 14 992 90 10000 2 41 02.08.2018 14:21
89 de Kassel Clouds 11 1014 82 10000 11 210 02.08.2018 14:21
90 us Las Vegas Clouds 33 1007 17 10000 20 230 02.08.2018 14:21
91 de Nürnberg Clouds 12 1018 87 10000 7 260 02.08.2018 14:21
92 de Hannover Clouds 12 1012 88 10000 19 250 02.08.2018 14:21
93 de Oberstdorf Clouds 10 1022 95 447 6 211 02.08.2018 14:21
94 us Denver Clouds 15 1017 76 10000 2 138 02.08.2018 14:21
95 es Las Palmas de Gran Canaria Clouds 22 1016 78 10000 17 26 02.08.2018 14:21
96 bg Sofia Clouds 15 1016 95 10000 13 300 02.08.2018 14:21
97 gb Glasgow Clouds 10 1013 87 10000 17 250 02.08.2018 14:21
98 de Stuttgart Clouds 13 1020 91 10000 4 0 02.08.2018 14:22
99 ec San Cristobal Clouds 20 1013 89 10000 20 165 02.08.2018 14:22
100 bo La Paz Clouds 5 1039 70 10000 13 80 02.08.2018 14:22
101 ar Esquel Clouds 9 1021 58 10000 0 70 02.08.2018 14:22
102 gb London Clouds 14 1014 89 10000 19 250 02.08.2018 14:22
103 au Sydney Clouds 16 1019 66 10000 13 160 02.08.2018 14:22
104 us New York Clouds 15 1014 90 10000 27 2 02.08.2018 14:22
105 de Freiburg Clouds 15 1020 87 10000 6 189 02.08.2018 14:22
106 ck Avarua Clouds 23 1016 56 10000 20 110 02.08.2018 14:22
107 sb Honiara Clouds 30 1010 69 10000 6 21 02.08.2018 14:22
108 br Rio de Janeiro Clouds 21 1016 86 10000 7 180 02.08.2018 14:22
109 us Honolulu Clouds 26 1012 76 10000 13 30 02.08.2018 14:22
110 au Perth Clouds 20 1015 46 10000 24 100 02.08.2018 14:21
111 gb Manchester Clouds 11 1012 92 10000 6 210 02.08.2018 14:21
112 ad Andorra la Vella Clouds 12 1029 80 10000 3 48 02.08.2018 14:22
113 vn Hanoi Clouds 26 1011 92 7895 7 99 02.08.2018 14:21
114 at Innsbruck Drizzle 11 1023 97 10000 4 0 02.08.2018 14:23
115 in Mumbai Haze 28 1010 89 3000 6 280 02.08.2018 14:22
116 in Nagpur Haze 25 1008 78 3000 9 320 02.08.2018 14:21
117 pg Port Moresby Haze 31 1005 66 10000 19 150 02.08.2018 14:21
118 mv Male Rain 26 1012 83 7000 33 290 02.08.2018 14:23
119 fr Paris Rain 16 1019 90 7000 13 220 02.08.2018 14:22
120 de Köln Rain 14 1013 89 10000 11 200 02.08.2018 14:21
121 de Trier Rain 13 1018 98 7309 12 212 02.08.2018 14:21
122 de München Rain 12 1022 90 10000 6 227 02.08.2018 14:21
123 de Hamburg Rain 11 1010 98 10000 17 220 02.08.2018 14:21
124 bs Nassau Rain 27 1011 89 10000 6 70 02.08.2018 14:22
125 ch Andermatt Rain 7 1023 96 6422 11 319 02.08.2018 14:23
126 no Oslo Rain 9 1001 1 10000 5 34 02.08.2018 14:23
127 de Torfhaus Rain 7 1015 99 7653 14 234 02.08.2018 14:22
128 de Frankfurt Rain 13 1016 92 10000 13 200 02.08.2018 14:22